Location: *
(43.9905°S, 176.4941°W)
Time: 05:16:44
(UTC+00:00)

Cosmos 1602 Rocket - Pass Details

Date: 08 December 2019
Orbit: 603 x 634 km, 82.5° (Epoch: 21 January)

Event Time Altitude Azimuth Distance (km) Brightness Sun altitude
Rises 10:38:55 0° 194° (SSW) 2,903 8.5 -22.0°
Reaches altitude 10° 10:41:13 10° 200° (SSW) 1,993 7.3 -22.1°
Maximum altitude 10:45:27 48° 273° (W) 813 4.1 -22.2°
Enters shadow 10:46:10 43° 304° (NW) 870 4.1 -22.3°
